| time (UTC) | temp C | wind direction | speed KPH | gust KPH | rain 1hr cm | rain 24hr cm | rain mn cm | humidity % | barometer mb |
| 20260506212529 | 17 | 285 | 9.7 | 11.3 | 0.00 | 0.81 | 0.81 | 92 | 1007.7 |
| 20260506212024 | 17 | 290 | 6.4 | 12.9 | 0.00 | 0.81 | 0.81 | 91 | 1007.5 |
| 20260506211520 | 18 | 267 | 6.4 | 8.0 | 0.00 | 0.81 | 0.81 | 90 | 1007.4 |
| 20260506211018 | 18 | 276 | 4.8 | 11.3 | 0.00 | 0.81 | 0.81 | 90 | 1007.5 |
| 20260506210514 | 17 | 285 | 6.4 | 8.0 | 0.00 | 0.81 | 0.81 | 92 | 1007.5 |
| 20260506210011 | 17 | 283 | 6.4 | 8.0 | 0.00 | 0.81 | 0.81 | 94 | 1007.6 |
| 20260506205507 | 17 | 290 | 9.7 | 11.3 | 0.00 | 0.81 | 0.81 | 95 | 1007.5 |
| 20260506205003 | 17 | 287 | 9.7 | 12.9 | 0.00 | 0.81 | 0.81 | 96 | 1007.5 |
| 20260506204502 | 16 | 285 | 9.7 | 11.3 | 0.00 | 0.81 | 0.81 | 96 | 1007.3 |
| 20260506203958 | 16 | 282 | 6.4 | 8.0 | 0.00 | 0.81 | 0.81 | 96 | 1007.6 |
| 20260506203456 | 16 | 284 | 6.4 | 11.3 | 0.00 | 0.81 | 0.81 | 97 | 1007.5 |
| 20260506202952 | 16 | 263 | 8.0 | 8.0 | 0.00 | 0.81 | 0.81 | 98 | 1007.5 |
| 20260506202450 | 16 | 266 | 6.4 | 8.0 | 0.00 | 0.81 | 0.81 | 98 | 1007.6 |
| 20260506201946 | 16 | 277 | 8.0 | 8.0 | 0.00 | 0.81 | 0.81 | 98 | 1007.5 |
| 20260506201444 | 16 | 260 | 8.0 | 8.0 | 0.00 | 0.81 | 0.81 | 98 | 1007.6 |
| 20260506200940 | 16 | 281 | 8.0 | 8.0 | 0.00 | 0.81 | 0.81 | 98 | 1007.7 |
| 20260506200436 | 16 | 286 | 9.7 | 11.3 | 0.00 | 0.81 | 0.81 | 98 | 1007.6 |
| 20260506195933 | 16 | 278 | 4.8 | 8.0 | 0.00 | 0.81 | 0.81 | 98 | 1007.6 |
| 20260506195430 | 16 | 273 | 6.4 | 11.3 | 0.00 | 0.81 | 0.81 | 98 | 1007.5 |
| 20260506194926 | 16 | 270 | 11.3 | 12.9 | 0.00 | 0.81 | 0.81 | 98 | 1007.4 |
| 20260506194424 | 16 | 266 | 4.8 | 8.0 | 0.00 | 0.81 | 0.81 | 99 | 1007.4 |
| 20260506193921 | 16 | 275 | 8.0 | 11.3 | 0.00 | 0.81 | 0.81 | 99 | 1007.7 |
| 20260506193418 | 16 | 267 | 6.4 | 8.0 | 0.00 | 0.81 | 0.81 | 99 | 1007.5 |
| 20260506192914 | 16 | 278 | 9.7 | 11.3 | 0.00 | 0.81 | 0.81 | 99 | 1007.7 |
| 20260506192411 | 16 | 274 | 8.0 | 11.3 | 0.00 | 0.81 | 0.81 | 99 | 1007.6 |
| 20260506191908 | 16 | 269 | 6.4 | 11.3 | 0.00 | 0.81 | 0.81 | 99 | 1007.7 |
| 20260506191404 | 15 | 272 | 8.0 | 12.9 | 0.00 | 0.81 | 0.81 | 99 | 1007.8 |
| 20260506190902 | 15 | 273 | 4.8 | 12.9 | 0.00 | 0.81 | 0.81 | 99 | 1007.8 |
| 20260506190358 | 15 | 284 | 8.0 | 11.3 | 0.00 | 0.81 | 0.81 | 99 | 1007.7 |
| 20260506185855 | 15 | 277 | 6.4 | 11.3 | 0.00 | 0.81 | 0.81 | 99 | 1007.8 |
| 20260506185352 | 15 | 277 | 6.4 | 8.0 | 0.00 | 0.81 | 0.81 | 99 | 1007.8 |
| 20260506184849 | 15 | 270 | 8.0 | 11.3 | 0.13 | 0.81 | 0.81 | 99 | 1008.1 |
| 20260506184345 | 15 | 268 | 4.8 | 8.0 | 0.13 | 0.81 | 0.81 | 99 | 1008.0 |
| 20260506183843 | 15 | 273 | 8.0 | 8.0 | 0.00 | 0.79 | 0.79 | 99 | 1008.3 |
| 20260506183338 | 15 | 265 | 6.4 | 8.0 | 0.00 | 0.79 | 0.79 | 99 | 1008.2 |
| 20260506182836 | 15 | 277 | 6.4 | 8.0 | 0.00 | 0.79 | 0.79 | 99 | 1008.2 |
| 20260506182333 | 15 | 284 | 4.8 | 8.0 | 0.00 | 0.79 | 0.79 | 99 | 1008.3 |
| 20260506181830 | 15 | 281 | 6.4 | 8.0 | 0.00 | 0.79 | 0.79 | 99 | 1008.3 |
| 20260506181328 | 15 | 277 | 6.4 | 8.0 | 0.00 | 0.79 | 0.79 | 99 | 1008.4 |
| 20260506180825 | 15 | 260 | 4.8 | 6.4 | 0.18 | 0.79 | 0.79 | 99 | 1008.2 |
| 20260506180321 | 15 | 271 | 4.8 | 6.4 | 0.18 | 0.79 | 0.79 | 99 | 1008.3 |
| 20260506175817 | 15 | 277 | 6.4 | 8.0 | 0.00 | 0.76 | 0.76 | 99 | 1008.4 |
| 20260506175314 | 15 | 271 | 4.8 | 8.0 | 0.18 | 0.76 | 0.76 | 99 | 1008.6 |
| 20260506174812 | 15 | 259 | 9.7 | 11.3 | 0.18 | 0.76 | 0.76 | 99 | 1008.4 |
| 20260506174309 | 15 | 280 | 6.4 | 8.0 | 0.13 | 0.74 | 0.74 | 99 | 1008.3 |
| 20260506173806 | 15 | 285 | 9.7 | 11.3 | 0.13 | 0.74 | 0.74 | 99 | 1008.4 |
| 20260506173303 | 15 | 283 | 4.8 | 11.3 | 0.18 | 0.71 | 0.71 | 99 | 1008.4 |
| 20260506172800 | 15 | 270 | 11.3 | 12.9 | 0.18 | 0.71 | 0.71 | 99 | 1008.6 |
| 20260506172256 | 15 | 251 | 6.4 | 11.3 | 0.00 | 0.69 | 0.69 | 99 | 1008.5 |
| 20260506171754 | 15 | 273 | 8.0 | 11.3 | 0.13 | 0.69 | 0.69 | 99 | 1008.4 |
| 20260506171251 | 15 | 283 | 3.2 | 4.8 | 0.13 | 0.69 | 0.69 | 99 | 1008.5 |
| 20260506170749 | 15 | 262 | 3.2 | 4.8 | 0.18 | 0.66 | 0.66 | 99 | 1008.5 |
| 20260506170245 | 15 | 288 | 8.0 | 8.0 | 0.13 | 0.64 | 0.64 | 99 | 1008.7 |
| 20260506165743 | 15 | 304 | 3.2 | 6.4 | 0.30 | 0.64 | 0.64 | 99 | 1008.6 |
| 20260506165240 | 15 | 269 | 1.6 | 8.0 | 0.18 | 0.61 | 0.61 | 99 | 1008.9 |
| 20260506164737 | 15 | 259 | 6.4 | 8.0 | 0.30 | 0.58 | 0.58 | 99 | 1008.8 |
| 20260506164234 | 15 | 286 | 8.0 | 8.0 | 0.43 | 0.58 | 0.58 | 99 | 1008.7 |
| 20260506163731 | 15 | 281 | 6.4 | 8.0 | 0.13 | 0.53 | 0.53 | 99 | 1008.8 |
| 20260506163225 | 15 | 264 | 8.0 | 8.0 | 0.00 | 0.51 | 0.51 | 99 | 1008.9 |
| 20260506162722 | 15 | 276 | 4.8 | 6.4 | 0.00 | 0.51 | 0.51 | 99 | 1008.9 |
| 20260506162220 | 15 | 287 | 6.4 | 8.0 | 0.00 | 0.51 | 0.51 | 99 | 1008.8 |
| 20260506161717 | 15 | 284 | 4.8 | 6.4 | 0.00 | 0.51 | 0.51 | 99 | 1008.8 |
| 20260506161214 | 15 | 283 | 3.2 | 8.0 | 0.00 | 0.51 | 0.51 | 99 | 1008.7 |
| 20260506160712 | 15 | 281 | 6.4 | 11.3 | 0.18 | 0.51 | 0.51 | 99 | 1008.7 |
| 20260506160208 | 15 | 299 | 3.2 | 12.9 | 0.00 | 0.48 | 0.48 | 99 | 1008.5 |
| 20260506155707 | 15 | 284 | 6.4 | 8.0 | 0.13 | 0.48 | 0.48 | 99 | 1008.5 |
| 20260506155203 | 15 | 3 | 9.7 | 11.3 | 0.00 | 0.46 | 0.46 | 99 | 1008.6 |
| 20260506153305 | 15 | 9 | 3.2 | 11.3 | 0.30 | 0.43 | 0.43 | 99 | 1009.2 |
| 20260506152802 | 15 | 314 | 4.8 | 4.8 | 0.43 | 0.41 | 0.41 | 99 | 1009.3 |
| 20260506152259 | 15 | 287 | 6.4 | 6.4 | 0.61 | 0.38 | 0.38 | 99 | 1009.5 |
| 20260506151758 | 15 | 263 | 4.8 | 11.3 | 0.43 | 0.30 | 0.30 | 98 | 1009.6 |
| 20260506151254 | 15 | 280 | 6.4 | 12.9 | 0.13 | 0.25 | 0.25 | 98 | 1009.8 |
| 20260506150751 | 15 | 280 | 8.0 | 11.3 | 0.00 | 0.23 | 0.23 | 98 | 1009.6 |
| 20260506150248 | 15 | 273 | 3.2 | 6.4 | 0.00 | 0.23 | 0.23 | 98 | 1009.6 |
| 20260506145745 | 15 | 274 | 9.7 | 11.3 | 0.18 | 0.23 | 0.23 | 97 | 1009.4 |
| 20260506145241 | 15 | 292 | 3.2 | 6.4 | 0.18 | 0.23 | 0.23 | 97 | 1009.2 |
| 20260506144739 | 15 | 299 | 3.2 | 4.8 | 0.00 | 0.20 | 0.20 | 97 | 1009.1 |
| 20260506144236 | 15 | 296 | 4.8 | 6.4 | 0.13 | 0.20 | 0.20 | 97 | 1009.4 |
| 20260506143733 | 15 | 19 | 3.2 | 4.8 | 0.18 | 0.18 | 0.18 | 96 | 1009.1 |
| 20260506143231 | 15 | 202 | 0.0 | 8.0 | 0.18 | 0.18 | 0.18 | 96 | 1009.2 |
| 20260506142729 | 15 | 88 | 0.0 | 4.8 | 0.13 | 0.15 | 0.15 | 97 | 1009.0 |
| 20260506142227 | 15 | 329 | 1.6 | 1.6 | 0.13 | 0.15 | 0.15 | 96 | 1009.3 |
| 20260506141725 | 15 | 293 | 3.2 | 4.8 | 0.18 | 0.13 | 0.13 | 96 | 1009.6 |
| 20260506141223 | 15 | 277 | 6.4 | 8.0 | 0.18 | 0.10 | 0.10 | 96 | 1009.6 |
| 20260506140720 | 15 | 278 | 4.8 | 6.4 | 0.13 | 0.08 | 0.08 | 95 | 1009.5 |
| 20260506140217 | 15 | 300 | 3.2 | 4.8 | 0.13 | 0.08 | 0.08 | 95 | 1009.6 |
| 20260506135713 | 15 | 301 | 3.2 | 4.8 | 0.00 | 0.05 | 0.05 | 95 | 1009.4 |
| 20260506135210 | 15 | 286 | 4.8 | 6.4 | 0.00 | 0.05 | 0.05 | 95 | 1009.4 |
| 20260506134707 | 15 | 289 | 4.8 | 4.8 | 0.00 | 0.05 | 0.05 | 95 | 1009.2 |
| 20260506134203 | 15 | 319 | 4.8 | 4.8 | 0.00 | 0.05 | 0.05 | 95 | 1009.3 |
| 20260506133700 | 15 | 323 | 3.2 | 8.0 | 0.18 | 0.05 | 0.05 | 94 | 1009.4 |
| 20260506133157 | 15 | 279 | 1.6 | 6.4 | 0.18 | 0.05 | 0.05 | 94 | 1009.5 |
| 20260506132654 | 15 | 274 | 3.2 | 6.4 | 0.00 | 0.03 | 0.03 | 94 | 1009.7 |
| 20260506132151 | 15 | 286 | 4.8 | 6.4 | 0.00 | 0.03 | 0.03 | 93 | 1009.6 |
| 20260506131649 | 16 | 280 | 3.2 | 6.4 | 0.13 | 0.03 | 0.03 | 93 | 1010.0 |
| 20260506131144 | 16 | 281 | 4.8 | 6.4 | 0.13 | 0.03 | 0.03 | 92 | 1009.7 |
| 20260506130641 | 16 | 273 | 6.4 | 8.0 | 0.00 | 0.00 | 0.00 | 92 | 1009.6 |
| 20260506130139 | 16 | 283 | 6.4 | 6.4 | 0.00 | 0.00 | 0.00 | 92 | 1009.8 |
| 20260506125637 | 16 | 274 | 4.8 | 8.0 | 0.00 | 0.00 | 0.00 | 91 | 1009.8 |
| 20260506125134 | 16 | 271 | 8.0 | 12.9 | 0.00 | 0.00 | 0.00 | 90 | 1009.7 |
| 20260506124632 | 16 | 228 | 6.4 | 11.3 | 0.00 | 0.00 | 0.00 | 90 | 1009.8 |
| 20260506124130 | 16 | 281 | 6.4 | 8.0 | 0.00 | 0.00 | 0.00 | 88 | 1010.1 |
| 20260506123627 | 16 | 277 | 6.4 | 11.3 | 0.00 | 0.00 | 0.00 | 87 | 1009.8 |
| 20260506123126 | 16 | 281 | 8.0 | 11.3 | 0.00 | 0.00 | 0.00 | 85 | 1009.6 |
| 20260506122622 | 16 | 275 | 8.0 | 11.3 | 0.00 | 0.00 | 0.00 | 84 | 1009.7 |
| 20260506122120 | 16 | 272 | 9.7 | 11.3 | 0.00 | 0.00 | 0.00 | 84 | 1009.5 |
| 20260506121617 | 17 | 271 | 9.7 | 12.9 | 0.00 | 0.00 | 0.00 | 82 | 1009.6 |
| 20260506121114 | 17 | 269 | 9.7 | 11.3 | 0.00 | 0.00 | 0.00 | 81 | 1009.3 |
| 20260506120612 | 17 | 264 | 8.0 | 8.0 | 0.00 | 0.00 | 0.00 | 80 | 1009.2 |
| 20260506120108 | 17 | 266 | 8.0 | 12.9 | 0.00 | 0.00 | 0.00 | 79 | 1009.3 |
| 20260506115607 | 17 | 40 | 6.4 | 12.9 | 0.00 | 0.00 | 0.00 | 78 | 1009.4 |
| 20260506115105 | 17 | 287 | 8.0 | 12.9 | 0.00 | 0.00 | 0.00 | 78 | 1009.5 |
| 20260506114602 | 17 | 289 | 6.4 | 8.0 | 0.00 | 0.00 | 0.00 | 78 | 1009.3 |
| 20260506114100 | 17 | 281 | 6.4 | 12.9 | 0.00 | 0.00 | 0.00 | 78 | 1009.4 |
| 20260506113558 | 17 | 299 | 9.7 | 12.9 | 0.00 | 0.00 | 0.00 | 77 | 1009.2 |
| 20260506113055 | 17 | 266 | 6.4 | 8.0 | 0.00 | 0.00 | 0.00 | 78 | 1009.2 |
| 20260506112551 | 17 | 274 | 4.8 | 6.4 | 0.00 | 0.00 | 0.00 | 78 | 1009.4 |
| 20260506112049 | 17 | 290 | 8.0 | 11.3 | 0.00 | 0.00 | 0.00 | 78 | 1009.3 |
| 20260506111547 | 17 | 282 | 3.2 | 6.4 | 0.00 | 0.00 | 0.00 | 78 | 1009.3 |
| 20260506111044 | 17 | 283 | 6.4 | 8.0 | 0.00 | 0.00 | 0.00 | 78 | 1009.2 |
| 20260506110541 | 17 | 302 | 6.4 | 8.0 | 0.00 | 0.00 | 0.00 | 78 | 1009.2 |
| 20260506110038 | 17 | 283 | 4.8 | 11.3 | 0.00 | 0.00 | 0.00 | 78 | 1009.2 |
| 20260506105534 | 17 | 286 | 6.4 | 8.0 | 0.00 | 0.00 | 0.00 | 78 | 1009.1 |
| 20260506105032 | 17 | 291 | 6.4 | 6.4 | 0.00 | 0.00 | 0.00 | 78 | 1009.0 |
| 20260506104530 | 17 | 292 | 4.8 | 8.0 | 0.00 | 0.00 | 0.00 | 77 | 1009.0 |
| 20260506104028 | 17 | 301 | 6.4 | 6.4 | 0.00 | 0.00 | 0.00 | 77 | 1008.9 |
| 20260506103524 | 17 | 266 | 4.8 | 8.0 | 0.00 | 0.00 | 0.00 | 77 | 1008.8 |
| 20260506103021 | 17 | 339 | 6.4 | 8.0 | 0.00 | 0.00 | 0.00 | 77 | 1009.0 |
| 20260506102520 | 17 | 4 | 6.4 | 8.0 | 0.00 | 0.00 | 0.00 | 77 | 1008.9 |
| 20260506102017 | 17 | 275 | 6.4 | 6.4 | 0.00 | 0.00 | 0.00 | 78 | 1008.8 |
| 20260506101513 | 17 | 290 | 3.2 | 6.4 | 0.00 | 0.00 | 0.00 | 77 | 1008.7 |
| 20260506101010 | 17 | 289 | 3.2 | 4.8 | 0.00 | 0.00 | 0.00 | 76 | 1008.6 |
| 20260506100509 | 17 | 295 | 4.8 | 6.4 | 0.00 | 0.00 | 0.00 | 76 | 1008.8 |
| 20260506100007 | 17 | 316 | 4.8 | 6.4 | 0.00 | 0.00 | 0.00 | 76 | 1008.8 |
| 20260506095505 | 17 | 290 | 0.0 | 1.6 | 0.00 | 0.00 | 0.00 | 76 | 1008.8 |
| 20260506095000 | 17 | 288 | 3.2 | 4.8 | 0.00 | 0.00 | 0.00 | 76 | 1008.8 |
| 20260506094459 | 17 | 260 | 1.6 | 4.8 | 0.00 | 0.00 | 0.00 | 75 | 1008.9 |
| 20260506093956 | 17 | 283 | 3.2 | 6.4 | 0.00 | 0.00 | 0.00 | 74 | 1009.0 |
| 20260506093454 | 17 | 342 | 3.2 | 6.4 | 0.00 | 0.00 | 0.00 | 74 | 1009.0 |
| 20260506092952 | 17 | 294 | 4.8 | 6.4 | 0.00 | 0.00 | 0.00 | 74 | 1008.8 |
| 20260506092449 | 17 | 295 | 3.2 | 6.4 | 0.00 | 0.00 | 0.00 | 73 | 1008.8 |
| 20260506091945 | 17 | 289 | 4.8 | 6.4 | 0.00 | 0.00 | 0.00 | 73 | 1008.9 |
| 20260506091444 | 17 | 288 | 4.8 | 6.4 | 0.00 | 0.00 | 0.00 | 72 | 1008.9 |
| 20260506090941 | 17 | 29 | 1.6 | 6.4 | 0.00 | 0.00 | 0.00 | 72 | 1009.0 |
| 20260506090439 | 17 | 281 | 3.2 | 6.4 | 0.00 | 0.00 | 0.00 | 72 | 1008.9 |
| 20260506085935 | 17 | 300 | 4.8 | 6.4 | 0.00 | 0.00 | 0.00 | 72 | 1009.1 |
| 20260506085432 | 17 | 289 | 4.8 | 6.4 | 0.00 | 0.00 | 0.00 | 71 | 1008.9 |
| 20260506084928 | 17 | 334 | 3.2 | 4.8 | 0.00 | 0.00 | 0.00 | 71 | 1009.0 |
| 20260506084425 | 17 | 278 | 4.8 | 4.8 | 0.00 | 0.00 | 0.00 | 71 | 1008.9 |
| 20260506083921 | 17 | 329 | 3.2 | 6.4 | 0.00 | 0.00 | 0.00 | 70 | 1009.2 |
| 20260506083419 | 17 | 293 | 3.2 | 4.8 | 0.00 | 0.00 | 0.00 | 70 | 1009.1 |
| 20260506082916 | 17 | 348 | 6.4 | 8.0 | 0.00 | 0.00 | 0.00 | 70 | 1008.9 |
| 20260506082413 | 17 | 312 | 0.0 | 4.8 | 0.00 | 0.00 | 0.00 | 71 | 1009.1 |
| 20260506081908 | 17 | 320 | 0.0 | 1.6 | 0.00 | 0.00 | 0.00 | 71 | 1009.1 |
| 20260506081407 | 17 | 313 | 0.0 | 1.6 | 0.00 | 0.00 | 0.00 | 71 | 1009.1 |
| 20260506080904 | 17 | 295 | 0.0 | 1.6 | 0.00 | 0.00 | 0.00 | 71 | 1009.1 |
| 20260506080400 | 17 | 322 | 1.6 | 1.6 | 0.00 | 0.00 | 0.00 | 70 | 1009.1 |
| 20260506073344 | 17 | 245 | 0.0 | 1.6 | 0.00 | 0.00 | 0.00 | 68 | 1009.3 |
| 20260506072841 | 17 | 245 | 0.0 | 0.0 | 0.00 | 0.00 | 0.00 | 68 | 1009.1 |
| 20260506072339 | 17 | 245 | 0.0 | 1.6 | 0.00 | 0.00 | 0.00 | 67 | 1009.2 |
| 20260506071836 | 18 | 256 | 0.0 | 0.0 | 0.00 | 0.00 | 0.00 | 66 | 1009.4 |
| 20260506071335 | 18 | 272 | 3.2 | 4.8 | 0.00 | 0.00 | 0.00 | 63 | 1009.3 |
| 20260506070831 | 19 | 278 | 3.2 | 4.8 | 0.00 | 0.00 | 0.00 | 62 | 1009.4 |
| 20260506070328 | 19 | 271 | 3.2 | 4.8 | 0.00 | 0.00 | 0.00 | 62 | 1009.3 |
| 20260506062300 | 19 | 282 | 4.8 | 6.4 | 0.00 | 0.00 | 0.00 | 60 | 1009.5 |
| 20260506061755 | 19 | 276 | 4.8 | 6.4 | 0.00 | 0.00 | 0.00 | 60 | 1009.6 |
| 20260506061253 | 19 | 230 | 0.0 | 4.8 | 0.00 | 0.00 | 0.00 | 62 | 1009.8 |
| 20260506060751 | 19 | 260 | 1.6 | 4.8 | 0.00 | 0.00 | 0.00 | 59 | 1009.7 |
| 20260506060248 | 18 | 268 | 4.8 | 6.4 | 0.00 | 0.00 | 0.00 | 60 | 1009.7 |
| 20260506051220 | 19 | 282 | 4.8 | 8.0 | 0.00 | 0.00 | 0.00 | 58 | 1010.3 |
| 20260506050718 | 19 | 285 | 4.8 | 6.4 | 0.00 | 0.00 | 0.00 | 58 | 1010.3 |
| 20260506050215 | 19 | 289 | 4.8 | 6.4 | 0.00 | 0.00 | 0.00 | 57 | 1010.1 |
| 20260506044706 | 19 | 281 | 3.2 | 6.4 | 0.00 | 0.00 | 0.00 | 56 | 1010.3 |
| 20260506044202 | 19 | 281 | 4.8 | 6.4 | 0.00 | 0.00 | 0.00 | 57 | 1010.2 |
| 20260506043700 | 19 | 289 | 6.4 | 6.4 | 0.00 | 0.00 | 0.00 | 57 | 1010.2 |
| 20260506043158 | 19 | 291 | 8.0 | 8.0 | 0.00 | 0.00 | 0.00 | 57 | 1010.3 |
| 20260506042657 | 19 | 283 | 4.8 | 6.4 | 0.00 | 0.00 | 0.00 | 57 | 1010.3 |
| 20260506042154 | 19 | 287 | 4.8 | 6.4 | 0.00 | 0.00 | 0.00 | 58 | 1010.3 |
| 20260506041653 | 19 | 285 | 6.4 | 8.0 | 0.00 | 0.00 | 0.00 | 57 | 1010.2 |
| 20260506041149 | 19 | 281 | 4.8 | 8.0 | 0.00 | 0.00 | 0.00 | 57 | 1010.2 |
| 20260506040647 | 18 | 281 | 4.8 | 8.0 | 0.00 | 0.00 | 0.00 | 58 | 1010.3 |
| 20260506040143 | 18 | 280 | 4.8 | 6.4 | 0.00 | 0.00 | 0.00 | 59 | 1010.4 |
| 20260506035641 | 18 | 293 | 4.8 | 4.8 | 0.00 | 0.10 | 0.10 | 59 | 1010.3 |
| 20260506035137 | 18 | 268 | 1.6 | 4.8 | 0.00 | 0.10 | 0.10 | 61 | 1010.2 |
| 20260506034634 | 18 | 301 | 1.6 | 1.6 | 0.00 | 0.10 | 0.10 | 62 | 1010.3 |
| 20260506034131 | 18 | 289 | 1.6 | 4.8 | 0.00 | 0.10 | 0.10 | 60 | 1010.4 |
| 20260506033628 | 18 | 293 | 3.2 | 6.4 | 0.00 | 0.10 | 0.10 | 57 | 1010.3 |
| 20260506033125 | 19 | 298 | 6.4 | 6.4 | 0.00 | 0.10 | 0.10 | 57 | 1010.3 |
| 20260506032623 | 19 | 287 | 0.0 | 4.8 | 0.00 | 0.10 | 0.10 | 58 | 1010.3 |
| 20260506032119 | 18 | 293 | 3.2 | 6.4 | 0.00 | 0.10 | 0.10 | 58 | 1010.2 |
| 20260506031616 | 19 | 286 | 1.6 | 6.4 | 0.00 | 0.10 | 0.10 | 58 | 1010.1 |
| 20260506031113 | 19 | 304 | 3.2 | 4.8 | 0.00 | 0.10 | 0.10 | 57 | 1010.4 |
| 20260506030612 | 18 | 291 | 1.6 | 1.6 | 0.00 | 0.10 | 0.10 | 59 | 1010.3 |
| 20260506030109 | 19 | 276 | 0.0 | 1.6 | 0.00 | 0.10 | 0.10 | 58 | 1010.3 |
| 20260506025606 | 20 | 283 | 4.8 | 4.8 | 0.00 | 0.10 | 0.10 | 54 | 1010.4 |
| 20260506025101 | 20 | 331 | 3.2 | 6.4 | 0.00 | 0.10 | 0.10 | 54 | 1010.3 |
| 20260506024559 | 20 | 295 | 6.4 | 6.4 | 0.00 | 0.10 | 0.10 | 53 | 1010.3 |
| 20260506024055 | 20 | 296 | 4.8 | 6.4 | 0.00 | 0.10 | 0.10 | 53 | 1010.2 |
| 20260506023551 | 20 | 281 | 4.8 | 6.4 | 0.00 | 0.10 | 0.10 | 54 | 1010.4 |
| 20260506023049 | 20 | 286 | 1.6 | 4.8 | 0.00 | 0.10 | 0.10 | 54 | 1010.2 |
| 20260506022546 | 20 | 274 | 1.6 | 4.8 | 0.00 | 0.10 | 0.10 | 54 | 1010.4 |
| 20260506022044 | 21 | 315 | 6.4 | 6.4 | 0.00 | 0.10 | 0.10 | 52 | 1010.4 |
| 20260506021541 | 21 | 281 | 6.4 | 8.0 | 0.00 | 0.10 | 0.10 | 52 | 1010.4 |
| 20260506021038 | 21 | 346 | 4.8 | 8.0 | 0.00 | 0.10 | 0.10 | 51 | 1010.3 |
| 20260506020536 | 21 | 275 | 4.8 | 8.0 | 0.00 | 0.10 | 0.10 | 50 | 1010.4 |
| 20260506020033 | 21 | 289 | 8.0 | 11.3 | 0.00 | 0.10 | 0.10 | 51 | 1010.2 |
| 20260506015530 | 21 | 288 | 6.4 | 12.9 | 0.00 | 0.10 | 0.10 | 51 | 1010.2 |
| 20260506015027 | 21 | 285 | 6.4 | 11.3 | 0.00 | 0.10 | 0.10 | 51 | 1010.3 |
| 20260506014524 | 21 | 298 | 3.2 | 8.0 | 0.00 | 0.10 | 0.10 | 50 | 1010.3 |
| 20260506014020 | 21 | 325 | 4.8 | 6.4 | 0.00 | 0.10 | 0.10 | 51 | 1010.2 |
| 20260506013518 | 21 | 320 | 3.2 | 6.4 | 0.00 | 0.10 | 0.10 | 50 | 1010.2 |
| 20260506013010 | 21 | 333 | 3.2 | 4.8 | 0.00 | 0.10 | 0.10 | 51 | 1010.1 |
| 20260506012506 | 21 | 299 | 3.2 | 6.4 | 0.00 | 0.10 | 0.10 | 48 | 1009.8 |
| 20260506012003 | 21 | 304 | 0.0 | 6.4 | 0.00 | 0.10 | 0.10 | 49 | 1009.8 |
| 20260506011501 | 21 | 347 | 1.6 | 6.4 | 0.00 | 0.10 | 0.10 | 48 | 1009.8 |
| 20260506010956 | 22 | 37 | 0.0 | 1.6 | 0.00 | 0.10 | 0.10 | 47 | 1009.7 |
| 20260506010456 | 22 | 273 | 0.0 | 6.4 | 0.00 | 0.10 | 0.10 | 44 | 1009.5 |
| 20260506005951 | 22 | 290 | 4.8 | 8.0 | 0.00 | 0.10 | 0.10 | 43 | 1009.6 |
| 20260506005449 | 22 | 283 | 3.2 | 8.0 | 0.00 | 0.10 | 0.10 | 44 | 1009.5 |
| 20260506004950 | 22 | 308 | 6.4 | 11.3 | 0.00 | 0.10 | 0.10 | 45 | 1009.4 |
| 20260506004448 | 22 | 283 | 3.2 | 6.4 | 0.00 | 0.10 | 0.10 | 45 | 1009.2 |
| 20260506003943 | 22 | 278 | 6.4 | 6.4 | 0.00 | 0.10 | 0.10 | 46 | 1009.2 |
| 20260506003441 | 22 | 312 | 4.8 | 8.0 | 0.00 | 0.10 | 0.10 | 45 | 1009.4 |
| 20260506002937 | 22 | 304 | 6.4 | 6.4 | 0.00 | 0.10 | 0.10 | 45 | 1009.2 |
| 20260506002433 | 22 | 310 | 4.8 | 6.4 | 0.00 | 0.10 | 0.10 | 45 | 1009.2 |
| 20260506001928 | 22 | 335 | 4.8 | 8.0 | 0.00 | 0.10 | 0.10 | 45 | 1009.2 |
| 20260506001426 | 22 | 322 | 0.0 | 8.0 | 0.00 | 0.10 | 0.10 | 45 | 1009.1 |
| 20260506000923 | 23 | 287 | 6.4 | 8.0 | 0.00 | 0.10 | 0.10 | 45 | 1009.1 |
| 20260506000423 | 23 | 303 | 6.4 | 11.3 | 0.00 | 0.10 | 0.10 | 44 | 1009.0 |
| 20260505235918 | 23 | 278 | 8.0 | 11.3 | 0.00 | 0.10 | 0.10 | 44 | 1008.9 |
| 20260505235416 | 23 | 282 | 8.0 | 8.0 | 0.00 | 0.10 | 0.10 | 43 | 1008.9 |
| 20260505234912 | 23 | 291 | 6.4 | 11.3 | 0.00 | 0.10 | 0.10 | 43 | 1009.1 |
| 20260505234410 | 23 | 304 | 8.0 | 17.7 | 0.00 | 0.10 | 0.10 | 42 | 1008.9 |
| 20260505233906 | 23 | 312 | 6.4 | 8.0 | 0.00 | 0.10 | 0.10 | 43 | 1009.0 |
| 20260505233404 | 23 | 293 | 6.4 | 8.0 | 0.00 | 0.10 | 0.10 | 42 | 1008.8 |
| 20260505232901 | 24 | 300 | 3.2 | 8.0 | 0.00 | 0.10 | 0.10 | 41 | 1008.7 |
| 20260505232359 | 24 | 318 | 12.9 | 17.7 | 0.00 | 0.10 | 0.10 | 40 | 1008.6 |
| 20260505231855 | 24 | 297 | 6.4 | 11.3 | 0.00 | 0.10 | 0.10 | 40 | 1008.7 |
| 20260505231353 | 24 | 278 | 12.9 | 16.1 | 0.00 | 0.10 | 0.10 | 40 | 1008.6 |
| 20260505230851 | 25 | 337 | 6.4 | 12.9 | 0.00 | 0.10 | 0.10 | 40 | 1008.8 |
| 20260505230348 | 25 | 286 | 9.7 | 12.9 | 0.00 | 0.10 | 0.10 | 40 | 1008.6 |
| 20260505225845 | 25 | 271 | 11.3 | 12.9 | 0.00 | 0.10 | 0.10 | 39 | 1008.6 |
| 20260505225342 | 25 | 286 | 9.7 | 12.9 | 0.00 | 0.10 | 0.10 | 40 | 1008.5 |
| 20260505224837 | 25 | 268 | 8.0 | 12.9 | 0.00 | 0.10 | 0.10 | 40 | 1008.6 |
| 20260505224335 | 25 | 293 | 11.3 | 17.7 | 0.00 | 0.10 | 0.10 | 39 | 1008.6 |
| 20260505223832 | 25 | 299 | 9.7 | 16.1 | 0.00 | 0.10 | 0.10 | 39 | 1008.5 |
| 20260505223329 | 25 | 273 | 8.0 | 12.9 | 0.00 | 0.10 | 0.10 | 40 | 1008.5 |
| 20260505222825 | 25 | 268 | 14.5 | 17.7 | 0.00 | 0.10 | 0.10 | 39 | 1008.4 |
| 20260505222321 | 26 | 285 | 11.3 | 17.7 | 0.00 | 0.10 | 0.10 | 39 | 1008.3 |
| 20260505221818 | 25 | 285 | 8.0 | 16.1 | 0.00 | 0.10 | 0.10 | 39 | 1008.4 |
| 20260505221315 | 25 | 265 | 9.7 | 16.1 | 0.00 | 0.10 | 0.10 | 40 | 1008.6 |
| 20260505220812 | 26 | 278 | 9.7 | 17.7 | 0.00 | 0.10 | 0.10 | 39 | 1008.5 |
| 20260505220309 | 26 | 283 | 11.3 | 12.9 | 0.00 | 0.10 | 0.10 | 38 | 1008.2 |
| 20260505215807 | 26 | 311 | 8.0 | 17.7 | 0.00 | 0.10 | 0.10 | 38 | 1008.3 |
| 20260505215305 | 26 | 277 | 11.3 | 12.9 | 0.00 | 0.10 | 0.10 | 38 | 1008.3 |
| 20260505214802 | 26 | 263 | 16.1 | 19.3 | 0.00 | 0.10 | 0.10 | 38 | 1008.4 |
| 20260505214300 | 26 | 268 | 12.9 | 16.1 | 0.00 | 0.10 | 0.10 | 38 | 1008.4 |
| 20260505213756 | 26 | 301 | 9.7 | 17.7 | 0.00 | 0.10 | 0.10 | 38 | 1008.4 |
| 20260505213254 | 26 | 271 | 11.3 | 17.7 | 0.00 | 0.10 | 0.10 | 38 | 1008.5 |
| 20260505212749 | 26 | 201 | 9.7 | 12.9 | 0.00 | 0.10 | 0.10 | 38 | 1008.5 |